Location: Northcutt
(34.7304°N, 84.4305°W)
Time: 18:16:04
(UTC+00:00)

SR - Pass Details

Date: 05 October 2022
Orbit: 577 x 874 km, 66.7° (Epoch: 05 December)

Event Time Altitude Azimuth Distance (km) Brightness Sun altitude
Rises 10:16:05 0° 343° (NNW) 3,295 ? -17.1°
Reaches altitude 10° 10:18:54 10° 354° (N) 2,311 ? -16.5°
Maximum altitude 10:23:28 29° 54° (NE) 1,307 ? -15.6°
Drops below altitude 10° 10:27:41 10° 115° (ESE) 2,127 ? -14.7°
Sets 10:30:10 0° 127° (SE) 2,987 ? -14.2°
